| time (UTC) | temp F | wind direction | speed MPH | gust MPH | rain 1hr in | rain 24hr in | rain mn in | humidity % | barometer mb |
| 20260831210039 | 89 | 305 | 2.0 | 0.0 | 0.00 | 0.00 | 0.64 | 78 | 1014.4 |
| 20260831204538 | 88 | 193 | 4.0 | 0.0 | 0.00 | 0.00 | 0.64 | 77 | 1014.4 |
| 20260831203038 | 88 | 184 | 2.0 | 0.0 | 0.00 | 0.00 | 0.64 | 79 | 1014.4 |
| 20260831201538 | 87 | 157 | 4.0 | 0.0 | 0.00 | 0.00 | 0.64 | 79 | 1014.2 |
| 20260831200039 | 87 | 239 | 3.0 | 0.0 | 0.00 | 0.00 | 0.64 | 81 | 1014.0 |
| 20260831194609 | 87 | 207 | 3.0 | 0.0 | 0.00 | 0.00 | 0.64 | 80 | 1014.3 |
| 20260831193036 | 85 | 142 | 2.0 | 0.0 | 0.00 | 0.00 | 0.64 | 82 | 1014.8 |
| 20260831191535 | 82 | 178 | 1.0 | 0.0 | 0.00 | 0.00 | 0.64 | 87 | 1014.8 |
| 20260831190038 | 81 | 217 | 2.0 | 0.0 | 0.00 | 0.00 | 0.64 | 89 | 1014.8 |
| 20260831184538 | 82 | 211 | 1.0 | 0.0 | 0.00 | 0.00 | 0.64 | 89 | 1015.0 |
| 20260831183034 | 82 | 167 | 1.0 | 0.0 | 0.00 | 0.00 | 0.64 | 91 | 1015.3 |
| 20260831181542 | 82 | 261 | 0.0 | 0.0 | 0.00 | 0.00 | 0.64 | 93 | 1015.4 |
| 20260831180033 | 82 | 277 | 1.0 | 0.0 | 0.00 | 0.00 | 0.64 | 94 | 1015.6 |
| 20260831174532 | 81 | 174 | 1.0 | 0.0 | 0.00 | 0.00 | 0.59 | 91 | 1015.8 |
| 20260831173031 | 83 | 235 | 2.0 | 0.0 | 0.00 | 0.00 | 0.52 | 89 | 1015.7 |
| 20260831171531 | 88 | 305 | 5.0 | 0.0 | 0.00 | 0.00 | 0.20 | 78 | 1015.8 |
| 20260831170034 | 93 | 285 | 3.0 | 0.0 | 0.00 | 0.00 | 0.00 | 66 | 1015.5 |
| 20260831164528 | 94 | 225 | 3.0 | 0.0 | 0.00 | 0.00 | 0.00 | 62 | 1015.6 |
| 20260831163033 | 94 | 289 | 2.0 | 0.0 | 0.00 | 0.00 | 0.00 | 64 | 1015.8 |
| 20260831161523 | 92 | 283 | 1.0 | 0.0 | 0.00 | 0.00 | 0.00 | 66 | 1016.1 |
| 20260831160021 | 91 | 193 | 1.0 | 0.0 | 0.00 | 0.00 | 0.00 | 68 | 1016.1 |
| 20260831154518 | 90 | 274 | 2.0 | 0.0 | 0.00 | 0.00 | 0.00 | 70 | 1016.5 |
| 20260831153020 | 88 | 206 | 3.0 | 0.0 | 0.00 | 0.00 | 0.00 | 74 | 1016.4 |
| 20260831151513 | 87 | 206 | 3.0 | 0.0 | 0.00 | 0.00 | 0.00 | 74 | 1016.6 |
| 20260831150011 | 86 | 146 | 2.0 | 0.0 | 0.00 | 0.00 | 0.00 | 77 | 1016.6 |
| 20260831144506 | 85 | 165 | 3.0 | 0.0 | 0.00 | 0.00 | 0.00 | 80 | 1016.4 |
| 20260831143005 | 85 | 167 | 1.0 | 0.0 | 0.00 | 0.00 | 0.00 | 81 | 1016.1 |
| 20260831141501 | 84 | 205 | 1.0 | 0.0 | 0.00 | 0.00 | 0.00 | 86 | 1016.1 |
| 20260831140058 | 82 | 149 | 1.0 | 0.0 | 0.00 | 0.00 | 0.00 | 92 | 1016.0 |
| 20260831134602 | 81 | 175 | 0.0 | 0.0 | 0.00 | 0.00 | 0.00 | 93 | 1016.0 |
| 20260831133051 | 80 | 144 | 0.0 | 0.0 | 0.00 | 0.00 | 0.00 | 94 | 1015.9 |
| 20260831131549 | 79 | 144 | 0.0 | 0.0 | 0.00 | 0.00 | 0.00 | 94 | 1015.8 |
| 20260831130053 | 79 | 191 | 0.0 | 0.0 | 0.00 | 0.00 | 0.00 | 94 | 1015.5 |
| 20260831124549 | 78 | 192 | 0.0 | 0.0 | 0.00 | 0.00 | 0.00 | 94 | 1015.5 |
| 20260831123044 | 78 | 334 | 0.0 | 0.0 | 0.00 | 0.00 | 0.00 | 95 | 1015.2 |
| 20260831121543 | 77 | 334 | 0.0 | 0.0 | 0.00 | 0.00 | 0.00 | 95 | 1015.3 |
| 20260831120042 | 77 | 334 | 0.0 | 0.0 | 0.00 | 0.00 | 0.00 | 95 | 1015.1 |
| 20260831114542 | 77 | 232 | 0.0 | 0.0 | 0.00 | 0.00 | 0.00 | 95 | 1015.0 |
| 20260831113042 | 77 | 232 | 0.0 | 0.0 | 0.00 | 0.00 | 0.00 | 95 | 1015.0 |
| 20260831111541 | 77 | 198 | 0.0 | 0.0 | 0.00 | 0.00 | 0.00 | 95 | 1014.6 |
| 20260831110040 | 77 | 198 | 0.0 | 0.0 | 0.00 | 0.00 | 0.00 | 95 | 1014.4 |
| 20260831104540 | 77 | 198 | 0.0 | 0.0 | 0.00 | 0.00 | 0.00 | 95 | 1014.4 |
| 20260831103039 | 77 | 198 | 0.0 | 0.0 | 0.00 | 0.00 | 0.00 | 95 | 1014.2 |
| 20260831101549 | 77 | 273 | 0.0 | 0.0 | 0.00 | 0.00 | 0.00 | 95 | 1014.3 |
| 20260831100048 | 77 | 273 | 0.0 | 0.0 | 0.00 | 0.00 | 0.00 | 95 | 1014.3 |
| 20260831094541 | 77 | 273 | 0.0 | 0.0 | 0.00 | 0.00 | 0.00 | 95 | 1014.3 |
| 20260831093037 | 77 | 269 | 1.0 | 0.0 | 0.00 | 0.00 | 0.00 | 95 | 1014.2 |
| 20260831091537 | 77 | 273 | 0.0 | 0.0 | 0.00 | 0.00 | 0.00 | 95 | 1014.0 |
| 20260831090046 | 77 | 167 | 0.0 | 0.0 | 0.00 | 0.00 | 0.00 | 95 | 1014.0 |
| 20260831084538 | 77 | 167 | 0.0 | 0.0 | 0.00 | 0.00 | 0.00 | 95 | 1014.1 |
| 20260831083035 | 77 | 167 | 0.0 | 0.0 | 0.00 | 0.00 | 0.00 | 95 | 1014.0 |
| 20260831081535 | 77 | 150 | 0.0 | 0.0 | 0.00 | 0.00 | 0.00 | 95 | 1014.3 |
| 20260831080035 | 77 | 150 | 0.0 | 0.0 | 0.00 | 0.00 | 0.00 | 95 | 1014.1 |
| 20260831074534 | 77 | 147 | 0.0 | 0.0 | 0.00 | 0.00 | 0.00 | 95 | 1014.1 |
| 20260831073032 | 77 | 138 | 0.0 | 0.0 | 0.00 | 0.00 | 0.00 | 95 | 1014.3 |
| 20260831071531 | 77 | 151 | 0.0 | 0.0 | 0.00 | 0.00 | 0.00 | 95 | 1014.3 |
| 20260831070035 | 77 | 150 | 0.0 | 0.0 | 0.00 | 0.00 | 0.00 | 95 | 1014.3 |
| 20260831064529 | 77 | 132 | 0.0 | 0.0 | 0.00 | 0.00 | 0.00 | 95 | 1014.4 |
| 20260831063028 | 78 | 121 | 0.0 | 0.0 | 0.00 | 0.00 | 0.00 | 95 | 1014.5 |
| 20260831061527 | 77 | 121 | 0.0 | 0.0 | 0.00 | 0.00 | 0.00 | 95 | 1014.7 |
| 20260831060027 | 77 | 121 | 0.0 | 0.0 | 0.00 | 0.00 | 0.00 | 95 | 1014.9 |
| 20260831054526 | 77 | 121 | 0.0 | 0.0 | 0.00 | 0.00 | 0.00 | 95 | 1015.1 |
| 20260831053021 | 77 | 190 | 0.0 | 0.0 | 0.00 | 0.00 | 0.00 | 95 | 1015.4 |
| 20260831051525 | 77 | 190 | 0.0 | 0.0 | 0.00 | 0.00 | 0.00 | 95 | 1015.5 |
| 20260831050017 | 77 | 157 | 0.0 | 0.0 | 0.00 | 0.00 | 0.00 | 95 | 1015.7 |
| 20260831044516 | 77 | 135 | 0.0 | 0.0 | 0.00 | 0.00 | 0.00 | 95 | 1015.8 |
| 20260831043015 | 77 | 135 | 0.0 | 0.0 | 0.00 | 0.00 | 0.00 | 95 | 1015.8 |
| 20260831041521 | 77 | 133 | 0.0 | 0.0 | 0.00 | 0.00 | 0.00 | 95 | 1016.0 |
| 20260831040012 | 77 | 153 | 0.0 | 0.0 | 0.00 | 0.00 | 0.00 | 94 | 1015.9 |
| 20260831034510 | 77 | 156 | 0.0 | 0.0 | 0.00 | 0.00 | 0.00 | 94 | 1016.1 |
| 20260831033010 | 77 | 153 | 0.0 | 0.0 | 0.00 | 0.00 | 1.04 | 94 | 1016.2 |
| 20260831031509 | 77 | 121 | 0.0 | 0.0 | 0.00 | 0.00 | 1.04 | 94 | 1016.0 |
| 20260831030009 | 77 | 197 | 0.0 | 0.0 | 0.00 | 0.00 | 1.04 | 93 | 1016.0 |
| 20260831024508 | 78 | 197 | 0.0 | 0.0 | 0.00 | 0.00 | 1.04 | 92 | 1016.0 |
| 20260831023008 | 77 | 197 | 0.0 | 0.0 | 0.00 | 0.00 | 1.04 | 94 | 1016.1 |
| 20260831021508 | 77 | 197 | 0.0 | 0.0 | 0.00 | 0.00 | 1.04 | 93 | 1016.0 |
| 20260831020008 | 77 | 162 | 0.0 | 0.0 | 0.00 | 0.00 | 1.04 | 93 | 1016.0 |
| 20260831014507 | 77 | 171 | 0.0 | 0.0 | 0.00 | 0.00 | 1.04 | 93 | 1016.0 |
| 20260831013007 | 77 | 153 | 0.0 | 0.0 | 0.00 | 0.00 | 1.04 | 92 | 1016.0 |
| 20260831011512 | 78 | 111 | 0.0 | 0.0 | 0.00 | 0.00 | 1.04 | 91 | 1016.1 |
| 20260831010007 | 78 | 120 | 0.0 | 0.0 | 0.00 | 0.00 | 1.04 | 91 | 1016.1 |
| 20260831004505 | 77 | 166 | 0.0 | 0.0 | 0.00 | 0.00 | 1.04 | 93 | 1016.0 |
| 20260831003006 | 77 | 156 | 1.0 | 0.0 | 0.00 | 0.00 | 1.04 | 92 | 1015.7 |
| 20260831001504 | 77 | 163 | 0.0 | 0.0 | 0.00 | 0.00 | 1.04 | 92 | 1015.7 |
| 20260831000004 | 77 | 179 | 1.0 | 0.0 | 0.00 | 0.00 | 1.04 | 92 | 1015.7 |
| 20260830234504 | 77 | 195 | 2.0 | 0.0 | 0.00 | 0.00 | 1.04 | 93 | 1015.6 |
| 20260830233003 | 77 | 192 | 1.0 | 0.0 | 0.00 | 0.00 | 1.04 | 93 | 1015.4 |
| 20260830231503 | 76 | 192 | 2.0 | 0.0 | 0.00 | 0.00 | 1.04 | 93 | 1015.2 |
| 20260830230003 | 77 | 190 | 1.0 | 0.0 | 0.00 | 0.00 | 1.04 | 94 | 1015.0 |
| 20260830224502 | 77 | 186 | 1.0 | 0.0 | 0.00 | 0.00 | 1.04 | 94 | 1014.9 |
| 20260830223000 | 77 | 244 | 0.0 | 0.0 | 0.00 | 0.00 | 1.02 | 94 | 1015.3 |
| 20260830221601 | 76 | 237 | 1.0 | 0.0 | 0.00 | 0.00 | 1.00 | 94 | 1015.7 |
| 20260830214558 | 77 | 80 | 4.0 | 0.0 | 0.00 | 0.00 | 0.94 | 94 | 1015.8 |
| 20260830213058 | 77 | 76 | 7.0 | 0.0 | 0.00 | 0.00 | 0.82 | 92 | 1015.5 |
| 20260830211558 | 77 | 96 | 9.0 | 0.0 | 0.00 | 0.00 | 0.46 | 92 | 1015.4 |